User: anonymous   Login
Location: Unspecified
(0.0000°N, 0.0000°E)
Time: 17:34:43
(UTC+00:00)
Language:

Cosmos 2336 - Orbit

View from above orbital plane
View from above orbital plane
View from above satellite
View from above satellite

Ground track
Ground track

The orbit data is extracted from the following two-line orbital elements,

1 24677U 96071A   18171.18260646  .00000014  00000-0 -15872-5 0  9994
2 24677  82.9406 196.8120 0025235  94.1447 331.6806 13.71504423 76156
Epoch (UTC): 20 June 2018 04:22:57
Eccentricity: 0.0025235
inclination: 82.9406°
perigee height: 975 km
apogee height: 1013 km
right ascension of ascending node: 196.8120°
argument of perigee: 94.1447°
revolutions per day: 13.71504423
mean anomaly at epoch: 331.6806°
orbit number at epoch: 7615

The dashed part of the orbit path shows where the satellite is in the earth's shadow,  

DLR